sat.trackr.live / text

‹ back to catalog

STARLINK-34443

NORAD 64296 · 2025-123F

PAYLOAD ACTIVE UNKNOWN

§ Identity

Operator
Country
US
Launch date
2025-06-08
Launch site
AFWTR
Launch vehicle
Mass (kg)
RCS (m²)

Purposes: comms

External: N2YO · Heavens-Above · Gunter

§ Orbital elements

Epoch: 2026-05-24T21:27:46.776096Z

Period
96.11 min
Inclination
70.0013°
Eccentricity
0.0002804
Mean motion
14.98339633 rev/d
Perigee alt
570.1 km
Apogee alt
574.0 km
Semi-major
6,950.2 km
B*
3.4748e-4
RAAN
2.3062°
Arg perigee
260.5477°
Mean anomaly
99.5365°
Rev number
5,425

§ Raw data

STARLINK-344431 64296U 25123F   26144.89429139  .00004057  00000+0  34748-3 0  99962 64296  70.0013   2.3062 0002804 260.5477  99.5365 14.98339633 54250

JSON: /api/v1/satellites/64296 · /tle

For live sub-satellite position, see the globe view (requires WebGL).

§ Visibility from observer

Set your observer location to see the next 7 days of passes ≥ 10°. The values pass through the URL so the page stays shareable.

No JS? Fill the form by hand. The geolocation button needs JavaScript.